Location: Dehesa de la Cepeda
(40.6574°N, 4.3013°W)
Time: 07:09:23
(UTC+00:00)

Courier 1B Rocket - Pass Details

Date: 02 August 2021
Orbit: 920 x 1202 km, 28.3° (Epoch: 26 September)

Event Time Altitude Azimuth Distance (km) Brightness Sun altitude
Exits shadow 04:01:09 17° 227° (SW) 2,216 6.2 -12.8°
Maximum altitude 04:04:30 26° 186° (S) 1,767 6.0 -12.3°
Drops below altitude 10° 04:09:34 10° 132° (SE) 2,616 7.4 -11.6°
Sets 04:12:33 0° 119° (ESE) 3,547 8.3 -11.1°
